Weather History for Memphis, TN

Change the Weather History Date:

Wednesday, February 27, 2013

  Actual Average Record
Temperature  
Mean Temperature 43 °F 49 °F  
Max Temperature 46 °F 58 °F 80 °F (1981)
Min Temperature 40 °F 40 °F 12 °F (1934)
Degree Days  
Heating Degree Days 22 16  
Month to date heating degree days 522 531  
Since 1 July heating degree days 2173 2433  
Cooling Degree Days 0 0  
Month to date cooling degree days 0 0  
Year to date cooling degree days 9 1  
Moisture  
Dew Point 32 °F    
Average Humidity 64    
Maximum Humidity 70    
Minimum Humidity 58    
Precipitation  
Precipitation T in 0.17 in 2.29 in (1890)
Month to date precipitation 3.85 4.23  
Year to date precipitation 13.57 8.21  
Snow  
Snow 0.00 in 0.00 in T in (2002)
Month to date snowfall T 1.3  
Since 1 July snowfall 0.9 3.4  
Snow Depth 0.00 in    
Sea Level Pressure  
Sea Level Pressure 29.93 in    
Wind  
Wind Speed 11 mph (West)    
Max Wind Speed 18 mph    
Max Gust Speed 24 mph    
Visibility 10 miles    
Events Rain    
T = Trace of Precipitation, MM = Missing Value Source: NWS Daily Summary

Daily Weather History Graph

Daily Weather History Graph

Search for Another Location

Airport:

Trip Planner

Search our weather history database for the weather conditions in past years. The results will help you decide how hot, cold, wet, or windy it might be!

Date:

Astronomy

Feb. 27, 2013 Rise Set
Actual Time 6:31 AM CST 5:54 PM CST
Civil Twilight 6:06 AM CST 6:19 PM CST
Nautical Twilight 5:36 AM CST 6:48 PM CST
Astronomical Twilight 5:07 AM CST 7:18 PM CST
Moon 8:07 PM CST 7:13 AM CST
Length of Visible Light 12h 13m
Length of Day
11h 22m
Waning Gibbous, 96% of the Moon is Illuminated
Feb 27
Waning Gibbous
Mar 4
Last Quarter
Mar 11
New
Mar 19
First Quarter
Mar 27
Full

Hourly Weather History & Observations

Time (CST) Temp. Windchill Dew Point Humidity Pressure Visibility Wind Dir Wind Speed Gust Speed Precip Events Conditions
12:54 AM 41.0 °F 32.8 °F 30.9 °F 67% 29.85 in 10.0 mi West 16.1 mph 21.9 mph N/A   Overcast
1:54 AM 41.0 °F 35.8 °F 32.0 °F 70% 29.85 in 10.0 mi West 8.1 mph - N/A   Overcast
2:09 AM 41.0 °F 36.4 °F 30.2 °F 65% 29.84 in 10.0 mi West 6.9 mph - N/A   Overcast
2:50 AM 41.0 °F 34.3 °F 30.2 °F 65% 29.84 in 10.0 mi West 11.5 mph - N/A   Overcast
2:54 AM 41.0 °F 34.7 °F 30.0 °F 65% 29.85 in 10.0 mi WNW 10.4 mph - N/A   Overcast
3:54 AM 39.9 °F 32.5 °F 30.0 °F 68% 29.86 in 10.0 mi WNW 12.7 mph 21.9 mph N/A   Overcast
4:21 AM 39.2 °F 33.6 °F 30.2 °F 70% 29.86 in 10.0 mi WNW 8.1 mph - N/A   Overcast
4:54 AM 39.9 °F 33.9 °F 30.0 °F 68% 29.87 in 10.0 mi West 9.2 mph - N/A   Overcast
5:15 AM 39.2 °F 33.0 °F 30.2 °F 70% 29.87 in 10.0 mi West 9.2 mph - N/A   Overcast
5:54 AM 39.9 °F 33.9 °F 28.9 °F 65% 29.90 in 10.0 mi West 9.2 mph - N/A   Overcast
6:54 AM 39.9 °F 35.1 °F 28.9 °F 65% 29.90 in 10.0 mi West 6.9 mph - N/A   Overcast
7:54 AM 41.0 °F 35.2 °F 30.0 °F 65% 29.92 in 10.0 mi WNW 9.2 mph - N/A   Overcast
8:54 AM 42.1 °F 35.7 °F 30.9 °F 65% 29.94 in 10.0 mi West 11.5 mph - N/A   Overcast
9:01 AM 42.8 °F 37.0 °F 30.2 °F 61% 29.93 in 10.0 mi West 10.4 mph - N/A   Overcast
9:54 AM 42.1 °F 37.7 °F 30.9 °F 65% 29.94 in 10.0 mi WNW 6.9 mph - N/A   Overcast
10:54 AM 43.0 °F 37.7 °F 32.0 °F 65% 29.96 in 10.0 mi WNW 9.2 mph - N/A   Overcast
11:54 AM 44.1 °F 38.1 °F 32.0 °F 63% 29.95 in 10.0 mi WSW 11.5 mph 17.3 mph N/A   Overcast
12:54 PM 44.1 °F 38.6 °F 33.1 °F 65% 29.93 in 10.0 mi West 10.4 mph - 0.00 in Rain Light Rain
1:49 PM 44.6 °F 38.8 °F 33.8 °F 66% 29.92 in 10.0 mi West 11.5 mph - 0.00 in   Overcast
1:54 PM 45.0 °F 38.2 °F 33.1 °F 63% 29.92 in 10.0 mi West 15.0 mph 20.7 mph 0.00 in   Overcast
2:05 PM 44.6 °F 38.1 °F 33.8 °F 66% 29.92 in 10.0 mi West 13.8 mph - N/A   Overcast
2:54 PM 45.0 °F 37.6 °F 34.0 °F 65% 29.94 in 10.0 mi West 17.3 mph 24.2 mph N/A   Overcast
3:45 PM 44.6 °F 38.4 °F 33.8 °F 66% 29.94 in 10.0 mi West 12.7 mph 19.6 mph N/A   Overcast
3:54 PM 45.0 °F 40.1 °F 33.1 °F 63% 29.94 in 10.0 mi West 9.2 mph 20.7 mph N/A   Overcast
4:12 PM 44.6 °F 38.8 °F 33.8 °F 66% 29.95 in 10.0 mi WSW 11.5 mph - N/A   Overcast
4:36 PM 44.6 °F 40.2 °F 33.8 °F 66% 29.95 in 10.0 mi West 8.1 mph - N/A   Overcast
4:54 PM 45.0 °F 39.7 °F 33.1 °F 63% 29.96 in 10.0 mi West 10.4 mph 18.4 mph N/A   Overcast
5:14 PM 44.6 °F 39.7 °F 33.8 °F 66% 29.96 in 10.0 mi West 9.2 mph - N/A   Overcast
5:54 PM 45.0 °F 41.2 °F 33.1 °F 63% 29.96 in 10.0 mi West 6.9 mph - N/A   Mostly Cloudy
6:54 PM 44.1 °F 40.1 °F 33.1 °F 65% 29.97 in 10.0 mi WSW 6.9 mph - N/A   Mostly Cloudy
7:54 PM 44.6 °F 40.2 °F 33.8 °F 66% 29.96 in 10.0 mi WSW 8.1 mph - N/A   Overcast
8:54 PM 44.1 °F 38.6 °F 33.1 °F 65% 29.97 in 10.0 mi West 10.4 mph 18.4 mph N/A   Overcast
9:17 PM 44.6 °F 38.1 °F 33.8 °F 66% 29.97 in 10.0 mi West 13.8 mph - 0.00 in Rain Light Rain
9:54 PM 44.1 °F 38.1 °F 30.9 °F 60% 29.98 in 10.0 mi NW 11.5 mph - 0.00 in   Overcast
10:11 PM 42.8 °F 36.6 °F 30.2 °F 61% 29.98 in 10.0 mi WNW 11.5 mph - N/A   Overcast
10:54 PM 41.0 °F 32.8 °F 28.9 °F 62% 29.98 in 10.0 mi NNW 16.1 mph 21.9 mph N/A   Mostly Cloudy
11:54 PM 39.9 °F 30.8 °F 28.0 °F 63% 29.99 in 10.0 mi NW 18.4 mph 24.2 mph N/A   Overcast